Alturas, CA

4:10 AM PDT on June 21, 2018 (GMT -0700)
Alturas Municipal

Weather History for KAAT - October, 2017

Change the Weather History Date:

Monday, October 9, 2017

  Actual Average Record
Temperature  
Mean Temperature 44 °F 49 °F  
Max Temperature 66 °F 69 °F 92 °F (1917)
Min Temperature 21 °F 29 °F 18 °F (1985)
Degree Days  
Heating Degree Days 21 16  
Month to date heating degree days 175 132  
Since 1 July heating degree days 419 509  
Cooling Degree Days 0 0  
Month to date cooling degree days 0 0  
Year to date cooling degree days 516 156  
Moisture  
Dew Point 14 °F    
Average Humidity 44    
Maximum Humidity 81    
Minimum Humidity 7    
Precipitation  
Precipitation 0.00 in 0.02 in 0.15 in (1952)
Month to date precipitation 0.00 0.17  
Year to date precipitation 12.19 9.83  
Sea Level Pressure  
Sea Level Pressure 30.18 in    
Wind  
Wind Speed 5 mph (ESE)    
Max Wind Speed 23 mph    
Max Gust Speed 28 mph    
Visibility 10 miles    
Events      
T = Trace of Precipitation, MM = Missing Value Source: NWS Daily Summary

Daily Weather History Graph

Daily Weather History Graph

Search for Another Location

Airport or City:

Astronomy

Oct. 09, 2017 Rise Set
Actual Time 7:08 AM PDT 6:30 PM PDT
Civil Twilight 6:40 AM PDT 6:57 PM PDT
Nautical Twilight 6:08 AM PDT 7:29 PM PDT
Astronomical Twilight 5:36 AM PDT 8:01 PM PDT
Moon 9:42 PM PDT (10/9) 11:26 AM PDT (10/9)
Length of Visible Light 12h 17m
Length of Day
11h 22m
Waning Gibbous, 80% of the Moon is Illuminated
Oct 9
Waning Gibbous
Oct 12
Last Quarter
Oct 19
New
Oct 27
First Quarter
Nov 3
Full

Hourly Weather History & Observations

Time (PDT) Temp. Windchill Dew Point Humidity Pressure Visibility Wind Dir Wind Speed Gust Speed Precip Events Conditions
12:55 AM 36.0 °F 33.3 °F 19.9 °F 52% 30.26 in 9.0 mi SE 3.5 mph - N/A   Clear
1:55 AM 32.0 °F 24.8 °F 19.9 °F 61% 30.27 in 10.0 mi NE 8.1 mph - N/A   Clear
2:55 AM 35.1 °F 32.2 °F 19.9 °F 54% 30.26 in 10.0 mi NNE 3.5 mph - N/A   Clear
3:55 AM 28.0 °F 20.8 °F 19.0 °F 69% 30.27 in 10.0 mi South 6.9 mph - N/A   Clear
4:55 AM 30.9 °F 24.3 °F 21.0 °F 67% 30.27 in 10.0 mi ESE 6.9 mph - N/A   Clear
5:55 AM 24.1 °F - 19.0 °F 81% 30.30 in 10.0 mi Calm Calm - N/A   Clear
6:55 AM 23.0 °F - 17.1 °F 78% 30.30 in 10.0 mi Calm Calm - N/A   Clear
7:55 AM 28.0 °F 21.7 °F 18.0 °F 66% 30.29 in 10.0 mi NNW 5.8 mph - N/A   Clear
8:55 AM 36.0 °F - 21.9 °F 57% 30.29 in 10.0 mi Calm Calm - N/A   Clear
9:55 AM 44.1 °F - 19.9 °F 38% 30.29 in 10.0 mi Calm Calm - N/A   Clear
10:55 AM 50.0 °F - 16.0 °F 26% 30.25 in 10.0 mi Calm Calm - N/A   Clear
11:55 AM 55.0 °F - 12.9 °F 19% 30.21 in 10.0 mi North 5.8 mph - N/A   Clear
12:55 PM 57.9 °F - 10.9 °F 16% 30.17 in 10.0 mi Calm Calm - N/A   Clear
1:55 PM 61.0 °F - 10.0 °F 13% 30.13 in 10.0 mi Variable 4.6 mph - N/A   Clear
2:55 PM 64.0 °F - 7.0 °F 11% 30.07 in 10.0 mi Variable 5.8 mph - N/A   Clear
3:55 PM 64.9 °F - -2.0 °F 7% 30.07 in 10.0 mi South 17.3 mph 26.5 mph N/A   Clear
4:55 PM 63.0 °F - 1.9 °F 9% 30.06 in 10.0 mi South 16.1 mph - N/A   Clear
5:55 PM 57.9 °F - 8.1 °F 14% 30.09 in 10.0 mi South 16.1 mph 21.9 mph N/A   Clear
6:55 PM 53.1 °F - 12.0 °F 20% 30.11 in 10.0 mi South 13.8 mph - N/A   Clear
7:55 PM 48.0 °F - 15.1 °F 27% 30.12 in 10.0 mi SSE 3.5 mph - N/A   Clear
8:55 PM 46.0 °F 44.8 °F 12.9 °F 26% 30.12 in 10.0 mi NNE 3.5 mph - N/A   Clear
9:55 PM 42.1 °F 38.4 °F 14.0 °F 32% 30.10 in 10.0 mi ENE 5.8 mph - N/A   Clear
10:55 PM 42.1 °F 40.2 °F 12.0 °F 29% 30.08 in 9.0 mi NE 3.5 mph - N/A   Clear
11:55 PM 37.9 °F - 12.0 °F 35% 30.06 in 7.0 mi Calm Calm - N/A   Clear